WB9TLH-11 Weather Reports


time (UTC)temp
C
wind
direction
speed
KPH
gust
KPH
rain 1hr
cm
rain 24hr
cm
rain mn
cm
humidity
%
barometer
mb
20260504040055 14 150 3.2 6.4 0.00 0.00 0.00 48 1012.0
20260504035555 14 150 3.2 12.9 0.00 0.00 0.00 49 1011.9
20260504035055 14 189 3.2 8.0 0.00 0.00 0.00 48 1011.9
20260504034555 14 152 1.6 11.3 0.00 0.00 0.00 49 1012.1
20260504034056 14 232 1.6 8.0 0.00 0.00 0.00 48 1012.1
20260504033555 14 177 3.2 6.4 0.00 0.00 0.00 49 1012.1
20260504033055 14 164 1.6 9.7 0.00 0.00 0.00 48 1012.2
20260504032556 14 160 1.6 4.8 0.00 0.00 0.00 49 1012.2
20260504032055 14 160 1.6 11.3 0.00 0.00 0.00 49 1012.3
20260504031555 14 173 1.6 6.4 0.00 0.00 0.00 48 1012.4
20260504031056 14 162 1.6 8.0 0.00 0.00 0.00 48 1012.4
20260504030555 14 163 3.2 8.0 0.00 0.00 0.00 48 1012.4
20260504030056 14 153 3.2 9.7 0.00 0.00 0.00 48 1012.4
20260504025556 14 142 1.6 11.3 0.00 0.00 0.00 48 1012.4
20260504025056 14 144 1.6 4.8 0.00 0.00 0.00 48 1012.5
20260504024556 14 144 3.2 11.3 0.00 0.00 0.00 48 1012.5
20260504024056 14 148 1.6 6.4 0.00 0.00 0.00 48 1012.5
20260504023556 14 148 1.6 11.3 0.00 0.00 0.00 48 1012.4
20260504023056 14 157 3.2 9.7 0.00 0.00 0.00 48 1012.3
20260504022556 15 142 3.2 11.3 0.00 0.00 0.00 48 1012.3
20260504022056 15 167 3.2 12.9 0.00 0.00 0.00 47 1012.2
20260504021556 15 133 3.2 11.3 0.00 0.00 0.00 47 1012.3
20260504021056 15 194 3.2 12.9 0.00 0.00 0.00 47 1012.3
20260504020556 15 150 3.2 9.7 0.00 0.00 0.00 47 1012.3
20260504020056 15 169 3.2 11.3 0.00 0.00 0.00 47 1012.3
20260504015556 15 146 1.6 11.3 0.00 0.00 0.00 47 1012.3
20260504015056 15 150 1.6 11.3 0.00 0.00 0.00 47 1012.3
20260504014556 15 177 1.6 6.4 0.00 0.00 0.00 46 1012.3
20260504014056 15 181 1.6 8.0 0.00 0.00 0.00 47 1012.3
20260504013556 15 167 3.2 6.4 0.00 0.00 0.00 46 1012.3
20260504013056 15 159 1.6 11.3 0.00 0.00 0.00 46 1012.3
20260504012556 15 150 3.2 14.5 0.00 0.00 0.00 46 1012.3
20260504012056 15 146 3.2 14.5 0.00 0.00 0.00 46 1012.2
20260504011556 15 180 4.8 17.7 0.00 0.00 0.00 45 1012.1
20260504011056 15 140 4.8 14.5 0.00 0.00 0.00 45 1011.8
20260504010556 15 149 4.8 11.3 0.00 0.00 0.00 45 1011.9
20260504010056 15 188 4.8 11.3 0.00 0.00 0.00 45 1012.0
20260504005556 15 156 4.8 11.3 0.00 0.00 0.00 45 1012.0
20260504005056 15 161 3.2 16.1 0.00 0.00 0.00 45 1012.1
20260504004556 15 163 3.2 8.0 0.00 0.00 0.00 45 1012.3
20260504004056 15 168 3.2 11.3 0.00 0.00 0.00 46 1012.4
20260504003556 16 184 1.6 8.0 0.00 0.00 0.00 45 1012.6
20260504003056 16 123 1.6 6.4 0.00 0.00 0.00 44 1012.9
20260504002556 16 123 0.0 3.2 0.00 0.00 0.00 45 1013.2
20260504002056 16 123 0.0 0.0 0.00 0.00 0.00 44 1013.3
20260504001556 16 123 0.0 1.6 0.00 0.00 0.00 43 1013.2
20260504001056 16 123 0.0 4.8 0.00 0.00 0.00 43 1013.2
20260504000556 16 123 0.0 3.2 0.00 0.00 0.00 43 1013.3
20260504000056 16 123 0.0 3.2 0.00 0.00 0.00 43 1013.2
20260503235556 16 123 1.6 6.4 0.00 0.00 0.00 43 1013.2
20260503235056 16 123 1.6 4.8 0.00 0.00 0.00 42 1013.3
20260503234556 16 123 0.0 6.4 0.00 0.00 0.00 42 1013.4
20260503234056 16 123 0.0 1.6 0.00 0.00 0.00 42 1013.6
20260503233556 16 123 0.0 1.6 0.00 0.00 0.00 41 1013.6
20260503233056 16 123 0.0 0.0 0.00 0.00 0.00 44 1013.5
20260503232556 16 123 1.6 0.0 0.00 0.00 0.00 42 1013.5
20260503232056 16 123 3.2 9.7 0.00 0.00 0.00 41 1013.3
20260503231556 16 144 3.2 12.9 0.00 0.00 0.00 40 1012.8
20260503231056 16 173 3.2 11.3 0.00 0.00 0.00 41 1012.8
20260503230556 16 190 1.6 6.4 0.00 0.00 0.00 40 1012.9
20260503230056 16 190 3.2 8.0 0.00 0.00 0.00 41 1013.0
20260503225556 16 184 1.6 17.7 0.00 0.00 0.00 40 1013.1
20260503225056 16 219 3.2 14.5 0.00 0.00 0.00 40 1013.3
20260503224556 16 219 3.2 14.5 0.00 0.00 0.00 40 1013.2
20260503224056 16 208 1.6 8.0 0.00 0.00 0.00 40 1013.3
20260503223556 16 224 1.6 9.7 0.00 0.00 0.00 41 1013.2
20260503223056 16 138 3.2 9.7 0.00 0.00 0.00 41 1013.3
20260503222556 16 160 3.2 14.5 0.00 0.00 0.00 40 1013.3
20260503222056 16 144 1.6 19.3 0.00 0.00 0.00 42 1013.4
20260503221556 16 228 3.2 8.0 0.00 0.00 0.00 41 1013.4
20260503221056 16 175 3.2 12.9 0.00 0.00 0.00 41 1013.2
20260503220556 16 196 4.8 11.3 0.00 0.00 0.00 41 1013.4
20260503220056 16 184 4.8 11.3 0.00 0.00 0.00 40 1013.4
20260503215556 16 205 4.8 11.3 0.00 0.00 0.00 40 1013.3
20260503215056 16 212 4.8 11.3 0.00 0.00 0.00 40 1013.4
20260503214556 16 211 4.8 12.9 0.00 0.00 0.00 41 1013.5
20260503214056 16 157 4.8 9.7 0.00 0.00 0.00 42 1013.4
20260503213556 16 150 4.8 11.3 0.00 0.00 0.00 41 1013.7
20260503213056 16 187 3.2 14.5 0.00 0.00 0.00 41 1014.0
20260503212556 16 144 3.2 14.5 0.00 0.00 0.00 39 1014.0
20260503212056 16 162 3.2 12.9 0.00 0.00 0.00 39 1014.1
20260503211556 16 198 3.2 12.9 0.00 0.00 0.00 40 1014.3
20260503211056 16 173 3.2 16.1 0.00 0.00 0.00 40 1014.2
20260503210556 16 169 3.2 14.5 0.00 0.00 0.00 39 1014.2
20260503210056 16 211 3.2 8.0 0.00 0.00 0.00 40 1014.5
20260503205556 16 194 3.2 16.1 0.00 0.00 0.00 40 1014.8
20260503205056 16 152 3.2 9.7 0.00 0.00 0.00 39 1014.8
20260503204557 16 215 3.2 12.9 0.00 0.00 0.00 39 1015.3
20260503204056 16 201 1.6 11.3 0.00 0.00 0.00 40 1015.4
20260503203556 16 200 1.6 11.3 0.00 0.00 0.00 39 1015.5
20260503203056 16 180 1.6 4.8 0.00 0.00 0.00 39 1015.7
20260503202556 16 236 4.8 6.4 0.00 0.00 0.00 38 1015.9
20260503202056 16 260 3.2 11.3 0.00 0.00 0.00 37 1016.1
20260503201556 16 241 3.2 8.0 0.00 0.00 0.00 38 1016.0
20260503201056 16 195 3.2 14.5 0.00 0.00 0.00 37 1015.8
20260503200556 16 263 4.8 9.7 0.00 0.00 0.00 37 1015.7
20260503200056 16 208 4.8 9.7 0.00 0.00 0.00 37 1015.7
20260503195556 17 238 3.2 11.3 0.00 0.00 0.00 37 1015.7
20260503195056 17 215 3.2 11.3 0.00 0.00 0.00 36 1015.8
20260503194556 16 234 3.2 9.7 0.00 0.00 0.00 38 1015.9
20260503194056 17 208 4.8 9.7 0.00 0.00 0.00 39 1015.8
20260503193556 17 184 4.8 20.9 0.00 0.00 0.00 36 1016.1
20260503193056 17 146 3.2 9.7 0.00 0.00 0.00 38 1016.2
20260503192556 16 144 4.8 12.9 0.00 0.00 0.00 38 1016.3
20260503192056 16 287 3.2 11.3 0.00 0.00 0.00 36 1016.5
20260503191556 17 231 3.2 11.3 0.00 0.00 0.00 37 1016.3
20260503191056 16 213 3.2 11.3 0.00 0.00 0.00 37 1016.4
20260503190556 16 205 4.8 14.5 0.00 0.00 0.00 39 1016.5
20260503190056 16 203 4.8 14.5 0.00 0.00 0.00 37 1016.6
20260503185556 16 140 6.4 25.7 0.00 0.00 0.00 36 1016.8
20260503185056 16 243 4.8 24.1 0.00 0.00 0.00 37 1017.0
20260503184556 16 174 3.2 17.7 0.00 0.00 0.00 42 1017.1
20260503184056 16 251 4.8 9.7 0.00 0.00 0.00 38 1017.0
20260503183556 16 202 3.2 8.0 0.00 0.00 0.00 36 1017.2
20260503183056 16 186 4.8 6.4 0.00 0.00 0.00 38 1017.3
20260503182556 16 141 6.4 19.3 0.00 0.00 0.00 37 1017.5
20260503182057 16 211 3.2 17.7 0.00 0.00 0.00 37 1017.7
20260503181557 16 154 4.8 17.7 0.00 0.00 0.00 38 1017.7
20260503181056 16 215 4.8 12.9 0.00 0.00 0.00 38 1017.9
20260503180557 15 168 4.8 9.7 0.00 0.00 0.00 37 1017.8
20260503180057 15 250 4.8 8.0 0.00 0.00 0.00 40 1018.1
20260503175557 15 236 4.8 8.0 0.00 0.00 0.00 41 1018.3
20260503175057 15 213 3.2 8.0 0.00 0.00 0.00 37 1018.3
20260503174557 15 226 3.2 9.7 0.00 0.00 0.00 37 1018.4
20260503174057 15 213 3.2 8.0 0.00 0.00 0.00 37 1018.6
20260503173557 15 150 3.2 11.3 0.00 0.00 0.00 38 1018.6
20260503173057 15 204 3.2 9.7 0.00 0.00 0.00 38 1018.8
20260503172557 15 234 3.2 6.4 0.00 0.00 0.00 38 1018.6
20260503172057 15 206 3.2 9.7 0.00 0.00 0.00 36 1018.7
20260503171557 15 151 1.6 14.5 0.00 0.00 0.00 42 1018.7
20260503171057 15 188 3.2 4.8 0.00 0.00 0.00 40 1018.7
20260503170557 15 140 3.2 4.8 0.00 0.00 0.00 39 1018.8
20260503150557 12 257 1.6 11.3 0.00 0.00 0.00 41 1020.3
20260503131057 8 200 1.6 6.4 0.00 0.00 0.00 48 1020.6
20260503130557 8 153 1.6 4.8 0.00 0.00 0.00 50 1020.6
20260503110557 5 226 0.0 0.0 0.00 0.00 0.00 54 1019.9
20260503081558 6 227 0.0 0.0 0.00 0.00 0.00 51 1019.6
20260503081058 6 227 0.0 0.0 0.00 0.00 0.00 52 1019.7
20260503080558 6 227 0.0 0.0 0.00 0.00 0.00 51 1019.6
20260503072558 6 227 0.0 0.0 0.00 0.00 0.00 49 1019.6
20260503072058 6 227 0.0 0.0 0.00 0.00 0.00 49 1019.5
20260503071558 6 227 0.0 0.0 0.00 0.00 0.00 48 1019.6
20260503071058 6 227 0.0 0.0 0.00 0.00 0.00 47 1019.7
20260503070558 6 227 0.0 0.0 0.00 0.00 0.00 47 1019.7
20260503055058 7 227 0.0 0.0 0.00 0.00 0.00 43 1020.1
20260503054558 7 227 0.0 0.0 0.00 0.00 0.00 44 1020.1
20260503054058 7 227 0.0 0.0 0.00 0.00 0.00 44 1020.1
20260503053558 6 227 0.0 0.0 0.00 0.00 0.00 46 1020.2
20260503053058 6 227 0.0 0.0 0.00 0.00 0.00 47 1020.2
20260503052558 6 227 0.0 0.0 0.00 0.00 0.00 47 1020.2
20260503052058 6 227 0.0 0.0 0.00 0.00 0.00 48 1020.2
20260503051558 6 227 0.0 0.0 0.00 0.00 0.00 48 1020.2
20260503051058 6 227 0.0 0.0 0.00 0.00 0.00 49 1020.2
20260503050558 6 227 0.0 0.0 0.00 0.00 0.00 49 1020.2
20260503050058 6 227 0.0 0.0 0.00 0.00 0.00 48 1020.2
20260503045558 6 227 0.0 0.0 0.00 0.00 0.00 48 1020.2
20260503045058 6 227 0.0 0.0 0.00 0.00 0.00 48 1020.2
20260503044558 6 227 0.0 0.0 0.00 0.00 0.00 48 1020.2
20260503044058 6 227 0.0 0.0 0.00 0.00 0.00 47 1020.2
20260503043558 6 227 0.0 0.0 0.00 0.00 0.00 47 1020.2
20260503043058 6 227 0.0 0.0 0.00 0.00 0.00 47 1020.1
20260503042558 6 227 0.0 0.0 0.00 0.00 0.00 47 1020.2
20260503042058 6 227 0.0 0.0 0.00 0.00 0.00 47 1020.1
20260503041558 6 227 0.0 0.0 0.00 0.00 0.00 47 1020.1
20260503041058 6 227 0.0 0.0 0.00 0.00 0.00 47 1020.1
20260503040558 6 227 0.0 0.0 0.00 0.00 0.00 47 1020.1